Time,TemperatureF,DewpointF,PressureIn,WindDirection,WindDirectionDegrees,WindSpeedMPH,WindSpeedGustMPH,Humidity,HourlyPrecipIn,Conditions,Clouds,dailyrainin,SoftwareType,DateUTC
2013-07-25 00:02:00,66.0,66.0,29.91,South,184,0.0,0.0,99,0.00,,,0.00,,2013-07-25 04:02:00,
2013-07-25 00:12:00,66.0,66.0,29.91,South,184,0.0,0.0,99,0.00,,,0.00,,2013-07-25 04:12:00,
2013-07-25 00:22:00,66.0,66.0,29.91,South,184,0.0,0.0,99,0.00,,,0.00,,2013-07-25 04:22:00,
2013-07-25 00:33:00,66.0,66.0,29.91,South,184,0.0,0.0,99,0.00,,,0.00,,2013-07-25 04:33:00,
2013-07-25 01:02:00,66.0,65.0,29.91,South,184,0.0,0.0,98,0.00,,,0.00,,2013-07-25 05:02:00,
2013-07-25 01:12:00,66.0,65.0,29.91,South,184,0.0,0.0,98,0.00,,,0.00,,2013-07-25 05:12:00,
2013-07-25 01:22:00,66.0,65.0,29.91,South,184,0.0,0.0,98,0.00,,,0.00,,2013-07-25 05:22:00,
2013-07-25 01:43:00,65.0,65.0,29.91,South,184,0.0,0.0,100,0.00,,,0.00,,2013-07-25 05:43:00,
2013-07-25 01:52:00,65.0,65.0,29.91,South,184,0.0,0.0,100,0.00,,,0.00,,2013-07-25 05:52:00,
2013-07-25 02:12:00,64.0,64.0,29.91,South,184,0.0,0.0,100,0.00,,,0.00,,2013-07-25 06:12:00,
2013-07-25 02:22:00,64.0,64.0,29.91,South,184,0.0,0.0,100,0.00,,,0.00,,2013-07-25 06:22:00,
2013-07-25 02:32:00,64.0,64.0,29.91,South,184,0.0,0.0,100,0.00,,,0.00,,2013-07-25 06:32:00,
2013-07-25 02:42:00,64.0,64.0,29.91,South,184,0.0,0.0,100,0.00,,,0.00,,2013-07-25 06:42:00,
2013-07-25 02:52:00,64.0,64.0,29.91,South,184,0.0,0.0,100,0.00,,,0.00,,2013-07-25 06:52:00,
2013-07-25 03:02:00,64.0,64.0,29.91,South,184,0.0,0.0,100,0.00,,,0.00,,2013-07-25 07:02:00,
2013-07-25 03:12:00,64.0,64.0,29.90,South,184,0.0,0.0,100,0.00,,,0.00,,2013-07-25 07:12:00,
2013-07-25 03:33:00,64.0,64.0,29.90,South,184,0.0,0.0,100,0.00,,,0.00,,2013-07-25 07:33:00,
2013-07-25 03:43:00,64.0,64.0,29.90,South,184,0.0,0.0,100,0.00,,,0.00,,2013-07-25 07:43:00,
2013-07-25 03:53:00,64.0,64.0,29.90,South,184,0.0,0.0,100,0.00,,,0.00,,2013-07-25 07:53:00,
2013-07-25 04:02:00,64.0,64.0,29.90,South,184,0.0,0.0,100,0.00,,,0.00,,2013-07-25 08:02:00,
2013-07-25 05:02:00,63.0,63.0,29.89,South,184,0.0,0.0,100,0.00,,,0.00,,2013-07-25 09:02:00,
2013-07-25 05:12:00,63.0,63.0,29.89,South,184,0.0,0.0,100,0.00,,,0.00,,2013-07-25 09:12:00,
2013-07-25 05:22:00,63.0,63.0,29.89,South,184,0.0,0.0,100,0.00,,,0.00,,2013-07-25 09:22:00,
2013-07-25 05:43:00,63.0,63.0,29.90,South,184,0.0,0.0,100,0.00,,,0.00,,2013-07-25 09:43:00,
2013-07-25 05:53:00,63.0,63.0,29.90,South,184,0.0,0.0,100,0.00,,,0.00,,2013-07-25 09:53:00,
2013-07-25 06:02:00,63.0,63.0,29.90,South,184,0.0,0.0,100,0.00,,,0.00,,2013-07-25 10:02:00,
2013-07-25 06:43:00,63.0,63.0,29.91,South,184,0.0,0.0,100,0.00,,,0.00,,2013-07-25 10:43:00,
2013-07-25 06:53:00,63.0,63.0,29.91,South,184,0.0,0.0,100,0.00,,,0.00,,2013-07-25 10:53:00,
2013-07-25 07:02:00,63.0,63.0,29.93,South,184,0.0,0.0,100,0.00,,,0.00,,2013-07-25 11:02:00,
2013-07-25 07:12:00,63.0,63.0,29.93,South,184,0.0,0.0,100,0.00,,,0.00,,2013-07-25 11:12:00,
2013-07-25 07:22:00,63.0,63.0,29.93,South,184,0.0,0.0,100,0.00,,,0.00,,2013-07-25 11:22:00,
2013-07-25 07:43:00,63.0,63.0,29.94,South,184,0.0,0.0,100,0.00,,,0.00,,2013-07-25 11:43:00,
2013-07-25 07:52:00,63.0,63.0,29.94,South,184,0.0,0.0,100,0.00,,,0.00,,2013-07-25 11:52:00,
2013-07-25 08:03:00,63.0,63.0,29.95,South,184,0.0,0.0,100,0.00,,,0.00,,2013-07-25 12:03:00,
2013-07-25 08:12:00,63.0,63.0,29.95,South,184,0.0,0.0,100,0.00,,,0.00,,2013-07-25 12:12:00,
2013-07-25 08:22:00,63.0,63.0,29.95,South,184,0.0,0.0,100,0.00,,,0.00,,2013-07-25 12:22:00,
2013-07-25 08:45:00,63.0,63.0,29.96,South,184,0.0,0.0,100,0.00,,,0.00,,2013-07-25 12:45:00,
2013-07-25 08:53:00,63.0,63.0,29.96,South,184,0.0,0.0,100,0.00,,,0.00,,2013-07-25 12:53:00,
2013-07-25 09:12:00,64.0,64.0,29.96,South,184,0.0,0.0,100,0.00,,,0.00,,2013-07-25 13:12:00,
2013-07-25 09:22:00,64.0,64.0,29.96,South,184,0.0,0.0,100,0.00,,,0.00,,2013-07-25 13:22:00,
2013-07-25 09:42:00,66.0,66.0,29.97,South,185,0.0,0.0,100,0.00,,,0.00,,2013-07-25 13:42:00,
2013-07-25 09:43:00,65.0,65.0,29.97,South,185,0.0,0.0,100,0.00,,,0.00,,2013-07-25 13:43:00,
2013-07-25 09:53:00,65.0,65.0,29.97,South,185,0.0,0.0,100,0.00,,,0.00,,2013-07-25 13:53:00,
2013-07-25 10:02:00,66.0,66.0,29.97,South,185,0.0,0.0,100,0.00,,,0.00,,2013-07-25 14:02:00,
2013-07-25 10:12:00,66.0,66.0,29.97,South,185,0.0,0.0,100,0.00,,,0.00,,2013-07-25 14:12:00,
2013-07-25 10:22:00,66.0,66.0,29.97,South,185,0.0,0.0,100,0.00,,,0.00,,2013-07-25 14:22:00,
2013-07-25 11:02:00,74.0,70.0,29.98,WSW,241,0.0,0.0,87,0.00,,,0.00,,2013-07-25 15:02:00,
2013-07-25 11:12:00,74.0,70.0,29.98,WSW,241,0.0,0.0,87,0.00,,,0.00,,2013-07-25 15:12:00,
2013-07-25 11:22:00,74.0,70.0,29.98,WSW,241,0.0,0.0,87,0.00,,,0.00,,2013-07-25 15:22:00,
2013-07-25 11:42:00,79.0,71.0,29.98,WSW,241,0.0,0.0,76,0.00,,,0.00,,2013-07-25 15:42:00,
2013-07-25 11:44:00,78.0,71.0,29.98,WSW,241,0.0,0.0,78,0.00,,,0.00,,2013-07-25 15:44:00,
2013-07-25 11:53:00,78.0,71.0,29.98,WSW,241,0.0,0.0,78,0.00,,,0.00,,2013-07-25 15:53:00,
2013-07-25 12:23:00,79.0,71.0,29.98,WSW,241,0.0,0.0,76,0.00,,,0.00,,2013-07-25 16:23:00,
2013-07-25 13:03:00,79.0,69.0,29.98,WSW,239,0.0,0.0,71,0.00,,,0.00,,2013-07-25 17:03:00,
2013-07-25 13:12:00,79.0,69.0,29.98,WSW,239,0.0,0.0,71,0.00,,,0.00,,2013-07-25 17:12:00,
2013-07-25 13:22:00,79.0,69.0,29.98,WSW,239,0.0,0.0,71,0.00,,,0.00,,2013-07-25 17:22:00,
2013-07-25 13:42:00,84.0,70.0,29.99,ESE,123,0.0,0.0,64,0.00,,,0.00,,2013-07-25 17:42:00,
2013-07-25 13:43:00,81.0,69.0,29.98,ESE,120,0.0,0.0,67,0.00,,,0.00,,2013-07-25 17:43:00,
2013-07-25 13:53:00,81.0,69.0,29.98,ESE,120,0.0,0.0,67,0.00,,,0.00,,2013-07-25 17:53:00,
2013-07-25 14:02:00,84.0,70.0,29.99,ESE,123,0.0,0.0,64,0.00,,,0.00,,2013-07-25 18:02:00,
2013-07-25 14:12:00,84.0,70.0,29.99,ESE,123,0.0,0.0,64,0.00,,,0.00,,2013-07-25 18:12:00,
2013-07-25 14:22:00,84.0,70.0,29.99,ESE,123,0.0,0.0,64,0.00,,,0.00,,2013-07-25 18:22:00,
2013-07-25 14:33:00,84.0,70.0,29.99,ESE,123,0.0,0.0,64,0.00,,,0.00,,2013-07-25 18:33:00,
2013-07-25 15:12:00,84.0,68.0,29.99,SE,128,0.0,0.0,59,0.00,,,0.00,,2013-07-25 19:12:00,
2013-07-25 15:22:00,84.0,68.0,29.99,SE,128,0.0,0.0,59,0.00,,,0.00,,2013-07-25 19:22:00,
2013-07-25 15:33:00,81.0,68.0,29.97,East,99,0.0,0.0,64,0.00,,,0.00,,2013-07-25 19:33:00,
2013-07-25 15:43:00,81.0,68.0,29.97,East,99,0.0,0.0,64,0.00,,,0.00,,2013-07-25 19:43:00,
2013-07-25 15:53:00,81.0,68.0,29.97,East,99,0.0,0.0,64,0.00,,,0.00,,2013-07-25 19:53:00,
2013-07-25 16:12:00,83.0,68.0,29.96,ESE,102,0.0,0.0,60,0.00,,,0.00,,2013-07-25 20:12:00,
2013-07-25 16:22:00,83.0,68.0,29.96,ESE,102,0.0,0.0,60,0.00,,,0.00,,2013-07-25 20:22:00,
2013-07-25 16:32:00,82.0,68.0,29.96,ESE,102,0.0,0.0,63,0.00,,,0.00,,2013-07-25 20:32:00,
2013-07-25 16:43:00,82.0,68.0,29.96,ESE,102,0.0,0.0,63,0.00,,,0.00,,2013-07-25 20:43:00,
2013-07-25 16:54:00,82.0,68.0,29.96,ESE,102,0.0,0.0,63,0.00,,,0.00,,2013-07-25 20:54:00,
2013-07-25 17:12:00,78.0,69.0,29.97,East,85,0.0,0.0,73,0.00,,,0.00,,2013-07-25 21:12:00,
2013-07-25 17:22:00,78.0,69.0,29.97,East,85,0.0,0.0,73,0.00,,,0.00,,2013-07-25 21:22:00,
2013-07-25 17:44:00,74.0,68.0,29.99,SE,127,0.0,0.0,83,0.00,,,0.00,,2013-07-25 21:44:00,
2013-07-25 17:52:00,74.0,68.0,29.99,SE,127,0.0,0.0,83,0.00,,,0.00,,2013-07-25 21:52:00,
2013-07-25 18:12:00,74.0,68.0,29.99,SE,127,0.0,0.0,82,0.00,,,0.00,,2013-07-25 22:12:00,
2013-07-25 18:22:00,74.0,68.0,29.99,SE,127,0.0,0.0,82,0.00,,,0.00,,2013-07-25 22:22:00,
2013-07-25 18:32:00,73.0,69.0,29.98,SE,127,0.0,0.0,87,0.00,,,0.00,,2013-07-25 22:32:00,
2013-07-25 18:43:00,73.0,69.0,29.98,SE,127,0.0,0.0,87,0.00,,,0.00,,2013-07-25 22:43:00,
2013-07-25 18:53:00,73.0,69.0,29.98,SE,127,0.0,0.0,87,0.00,,,0.00,,2013-07-25 22:53:00,
2013-07-25 19:02:00,69.0,68.0,30.01,NNE,32,0.0,0.0,95,0.05,,,0.05,,2013-07-25 23:02:00,
2013-07-25 19:12:00,69.0,68.0,30.01,NNE,32,0.0,0.0,95,0.05,,,0.05,,2013-07-25 23:12:00,
2013-07-25 19:22:00,69.0,68.0,30.01,NNE,32,0.0,0.0,95,0.05,,,0.05,,2013-07-25 23:22:00,
2013-07-25 19:32:00,66.0,66.0,30.03,NNE,32,0.0,0.0,100,0.06,,,0.06,,2013-07-25 23:32:00,
2013-07-25 19:52:00,66.0,66.0,30.03,NNE,32,0.0,0.0,100,0.06,,,0.06,,2013-07-25 23:52:00,
2013-07-25 20:12:00,65.0,65.0,30.04,SE,124,0.0,0.0,100,0.04,,,0.09,,2013-07-26 00:12:00,
2013-07-25 20:22:00,65.0,65.0,30.04,SE,124,0.0,0.0,100,0.04,,,0.09,,2013-07-26 00:22:00,
2013-07-25 20:33:00,64.0,64.0,30.04,SE,124,0.0,0.0,100,0.03,,,0.09,,2013-07-26 00:33:00,
2013-07-25 20:43:00,64.0,64.0,30.04,SE,124,0.0,0.0,100,0.03,,,0.09,,2013-07-26 00:43:00,
2013-07-25 20:52:00,64.0,64.0,30.04,SE,124,0.0,0.0,100,0.03,,,0.09,,2013-07-26 00:52:00,
2013-07-25 21:12:00,64.0,64.0,30.04,SE,124,0.0,0.0,100,0.00,,,0.09,,2013-07-26 01:12:00,
2013-07-25 21:22:00,64.0,64.0,30.04,SE,124,0.0,0.0,100,0.00,,,0.09,,2013-07-26 01:22:00,
2013-07-25 21:43:00,63.0,63.0,30.04,SE,124,0.0,0.0,100,0.00,,,0.09,,2013-07-26 01:43:00,
2013-07-25 21:52:00,63.0,63.0,30.04,SE,124,0.0,0.0,100,0.00,,,0.09,,2013-07-26 01:52:00,
2013-07-25 22:12:00,63.0,63.0,30.07,SE,124,0.0,0.0,100,0.00,,,0.09,,2013-07-26 02:12:00,
2013-07-25 22:22:00,63.0,63.0,30.07,SE,124,0.0,0.0,100,0.00,,,0.09,,2013-07-26 02:22:00,
2013-07-25 22:32:00,63.0,63.0,30.07,SE,124,0.0,0.0,100,0.00,,,0.09,,2013-07-26 02:32:00,
2013-07-25 22:43:00,63.0,63.0,30.07,SE,124,0.0,0.0,100,0.00,,,0.09,,2013-07-26 02:43:00,
2013-07-25 22:52:00,63.0,63.0,30.07,SE,124,0.0,0.0,100,0.00,,,0.09,,2013-07-26 02:52:00,
2013-07-25 23:12:00,63.0,63.0,30.07,SE,124,0.0,0.0,100,0.00,,,0.09,,2013-07-26 03:12:00,
2013-07-25 23:22:00,63.0,63.0,30.07,SE,124,0.0,0.0,100,0.00,,,0.09,,2013-07-26 03:22:00,
2013-07-25 23:43:00,62.0,62.0,30.08,SE,124,0.0,0.0,100,0.00,,,0.09,,2013-07-26 03:43:00,
2013-07-25 23:53:00,62.0,62.0,30.08,SE,124,0.0,0.0,100,0.00,,,0.09,,2013-07-26 03:53:00,